sat.trackr.live / text

‹ back to catalog

STARLINK-35000

NORAD 65278 · 2025-184F

PAYLOAD ACTIVE UNKNOWN

§ Identity

Operator
Country
US
Launch date
2025-08-22
Launch site
AFWTR
Launch vehicle
Mass (kg)
RCS (m²)

Purposes: comms

External: N2YO · Heavens-Above · Gunter

§ Orbital elements

Epoch: 2026-05-25T03:47:53.892960Z

Period
95.64 min
Inclination
97.4480°
Eccentricity
0.0000850
Mean motion
15.05653640 rev/d
Perigee alt
548.9 km
Apogee alt
550.1 km
Semi-major
6,927.6 km
B*
2.1840e-4
RAAN
197.6151°
Arg perigee
160.6270°
Mean anomaly
199.4990°
Rev number
4,280

§ Raw data

STARLINK-350001 65278U 25184F   26145.15826265  .00003094  00000+0  21840-3 0  99942 65278  97.4480 197.6151 0000850 160.6270 199.4990 15.05653640 42807

JSON: /api/v1/satellites/65278 · /tle

For live sub-satellite position, see the globe view (requires WebGL).

§ Visibility from observer

Set your observer location to see the next 7 days of passes ≥ 10°. The values pass through the URL so the page stays shareable.

No JS? Fill the form by hand. The geolocation button needs JavaScript.